Regional Weather Roundup
Issued by NWS

Home | Current Version | Previous Version | Graphics & Text | Print | Product List | Glossary On
Versions: 1 2 3 4 5 6 7 8 9 10 11 12 13 14 15 16 17 18 19 20 21 22 23 24 25 26 27 28 29 30 31 32 33 34 35 36 37 38 39 40 41 42 43 44 45 46 47 48
000
ASUS45 KCYS 210210
RWRWY

WYOMING REGIONAL WEATHER ROUNDUP
NATIONAL WEATHER SERVICE CHEYENNE WY
800 PM MDT MON OCT 20 2014

NOTE:  "FAIR" INDICATES FEW OR NO CLOUDS BELOW 12,000 FEET
WITH NO SIGNIFICANT WEATHER AND/OR OBSTRUCTIONS TO VISIBILITY.

WYZ001-210300-
YELLOWSTONE NATIONAL PARK

CITY           SKY/WX    TMP DP  RH WIND       PRES   REMARKS
LK YELLOWSTONE   N/A     43  32  65 CALM      30.12F
W YELLOWSTONE  NOT AVBL

$$
WYZ002>013-054>058-071-098>099-210300-
NORTHERN WYOMING

CITY           SKY/WX    TMP DP  RH WIND       PRES   REMARKS
JACKSON        CLEAR     48  28  46 CALM      30.04R
CODY           CLEAR    N/A N/A N/A S3        29.92S
GREYBULL       CLEAR     60  30  32 E8        29.86S
WORLAND        CLEAR     59  29  31 S9        29.87S
SHERIDAN       CLEAR     51  33  50 SE6       29.88S
BUFFALO        CLEAR     55  23  28 W7        29.94S
GILLETTE       CLEAR     61  33  35 S13       29.91R
HULETT         FAIR      63  34  34 S3        29.93
NEWCASTLE      FAIR      64  34  32 E13       29.95

$$
WYZ014>020-022>026-101>103-210300-
CENTRAL WYOMING

CITY           SKY/WX    TMP DP  RH WIND       PRES   REMARKS
BIG PINEY      PTCLDY    51  29  42 CALM      30.09S
PINEDALE       PTCLDY    52  30  43 CALM      30.09S
DUBOIS         FAIR      50  28  43 SW13      30.07S
LANDER         CLEAR     60  31  33 SW13      29.97S
RIVERTON       CLEAR     57  28  33 CALM      29.98S
CASPER         CLEAR     52  31  44 SW5       30.00S
DOUGLAS        CLEAR     53  33  46 CALM      30.00S

$$
WYZ021-027>030-104>119-210300-
SOUTHERN WYOMING

CITY           SKY/WX    TMP DP  RH WIND       PRES   REMARKS
EVANSTON       PTCLDY    56  32  40 S9        30.09S
KEMMERER       CLOUDY    55  30  38 S5        30.10S
FORT BRIDGER   CLOUDY    60  33  35 S6        30.12S
ROCK SPRINGS   PTCLDY    56  31  38 S9        30.09S
DIXON          FAIR      48  37  63 CALM      30.15R
RAWLINS        PTCLDY    54  32  43 W5        30.11S
SARATOGA       MOCLDY    55  34  44 SW10      30.15R
LARAMIE        PTCLDY    51  35  54 S7        30.14F
CHEYENNE       PTCLDY    56  35  45 W3        30.10R
TORRINGTON     CLEAR     60  36  40 SE8       29.98R
PINE BLUFFS    FAIR      61  32  33 S13       30.06S

$$


USA.gov is the U.S. government's official web portal to all federal, state and local government web resources and services.